Theta_e
340 339 337 335 338 340 341 347 351 347 345 344 341 341 344 346 346 346 345 344 345 342 340 338 341 348 341 341 339 337 334 334
341 341 341 338 340 342 343 347 350 351 347 344 341 340 344 344 345 347 347 342 343 345 341 341 338 340 338 336 335 336 336 335
344 344 344 342 341 343 344 347 351 351 350 346 343 342 340 345 345 345 348 346 346 342 343 339 340 337 336 334 336 336 334 334
346 345 344 345 344 345 346 345 351 351 351 349 346 344 344 344 347 350 347 346 347 344 339 338 337 335 334 333 335 333 333 332
345 347 347 348 348 348 348 347 350 351 352 351 347 343 344 345 348 349 348 346 346 344 339 338 337 336 336 335 334 337 333 333
346 348 350 351 351 350 351 345 347 351 352 351 347 345 344 347 349 348 345 344 343 342 337 337 335 336 334 331 329 332 331 331
343 344 347 350 353 353 353 350 346 349 351 351 351 349 344 346 349 347 345 342 340 340 334 337 338 334 334 332 330 332 331 330
336 339 341 345 349 354 355 352 350 350 350 351 350 350 345 347 347 347 345 343 339 337 331 337 335 333 332 330 332 332 331 330
341 341 342 343 346 351 354 353 352 350 346 345 346 346 346 346 347 346 344 342 335 332 332 336 335 333 332 333 331 332 329 331
341 343 344 343 346 350 352 353 353 351 347 349 349 345 348 347 346 342 342 333 330 331 337 336 336 331 333 333 332 327 328 330
340 340 344 345 345 349 351 353 354 353 353 350 349 348 348 343 342 340 342 337 334 338 338 337 336 334 332 334 333 331 324 327
338 339 343 345 347 350 352 353 355 354 354 351 349 344 343 346 343 344 344 338 340 338 339 338 337 333 332 331 330 330 330 322
335 338 341 345 348 350 351 353 354 353 352 351 348 347 345 341 340 347 346 345 341 339 339 339 337 334 334 332 330 331 327 323
339 344 346 348 348 349 350 351 351 351 351 350 350 348 347 341 343 343 342 342 342 341 340 339 339 337 336 334 334 333 330 327
335 340 342 345 347 348 349 350 350 350 350 350 350 350 348 348 347 342 341 339 339 341 341 339 337 338 337 336 334 333 331 327
332 334 338 342 347 348 347 349 350 350 350 350 351 350 347 347 348 343 340 339 340 343 342 340 338 337 336 337 334 332 332 328
333 336 338 336 341 347 348 348 350 350 350 351 350 348 348 347 349 348 343 345 342 343 342 341 339 337 336 336 333 333 331 328
332 335 337 339 338 342 347 349 349 350 350 350 348 345 346 348 349 347 346 346 345 343 342 341 340 337 337 336 335 335 330 327
332 337 338 339 338 337 346 348 349 346 347 341 333 331 331 333 342 345 346 346 343 342 341 339 338 337 335 334 334 334 332 330
329 333 337 338 333 334 342 346 341 340 333 327 329 328 326 331 340 346 346 343 344 342 340 340 337 337 336 333 328 327 327 328
Wind_Speed
13 12 11 12 11 9 9 9 6 8 7 6 5 5 5 5 5 5 3 2 2 2 4 5 6 10 7 9 9 1 5 4
12 11 9 10 10 10 9 10 9 7 5 6 5 4 4 4 5 4 3 4 3 1 1 1 3 2 4 3 5 2 4 3
11 11 10 9 11 11 11 10 9 7 5 5 4 3 5 3 4 4 2 2 1 3 1 3 2 3 3 5 4 3 4 4
12 11 11 11 10 11 11 12 10 10 8 5 5 4 4 5 3 1 2 3 2 1 3 3 4 4 4 6 4 5 3 5
11 10 10 12 11 11 12 12 11 10 9 8 6 6 5 5 4 4 2 4 3 3 3 3 2 4 4 4 4 3 3 3
10 10 10 10 11 12 12 11 12 12 11 9 7 6 5 5 4 3 4 4 5 5 3 2 5 5 5 5 6 5 4 4
7 8 8 10 12 11 12 12 14 13 9 6 3 4 4 5 3 4 5 5 4 4 2 4 5 5 5 4 5 5 5 5
7 8 8 8 10 12 12 12 12 11 8 7 6 6 4 5 5 4 6 5 3 3 4 3 6 5 4 7 4 5 5 6
8 6 7 9 9 12 14 15 13 11 9 9 6 5 5 5 4 5 5 5 4 3 7 5 6 4 6 5 5 6 6 5
11 9 6 8 9 10 12 14 14 11 9 6 4 4 4 5 5 4 5 4 5 6 7 4 4 4 5 6 6 5 7 5
8 10 9 7 8 9 11 12 13 12 9 7 5 4 3 5 6 7 6 7 9 10 7 6 5 6 5 6 7 8 6 7
6 10 9 8 9 9 10 11 11 10 10 8 8 5 3 2 3 3 4 9 9 8 8 7 7 6 4 6 6 6 7 7
6 6 8 8 9 9 9 10 11 9 10 8 7 6 4 3 4 5 7 7 9 9 9 8 8 8 7 6 5 7 7 9
6 6 7 8 9 10 11 12 11 10 9 8 8 5 5 5 7 5 5 5 6 8 9 8 9 9 8 8 7 8 8 7
8 8 8 7 9 11 11 13 13 13 11 10 9 8 8 8 9 5 4 5 5 5 7 7 8 9 9 8 8 8 9 9
9 9 8 9 10 11 12 12 12 11 10 9 8 8 7 7 7 6 5 4 4 4 7 7 9 9 9 9 8 9 9 9
11 10 9 9 10 11 11 12 11 8 9 7 7 7 9 8 7 6 7 6 6 7 8 8 8 9 10 10 9 10 9 9
11 9 8 7 6 8 7 7 7 8 7 5 1 6 9 11 10 10 9 7 8 8 8 9 8 9 10 10 11 10 11 9
10 10 10 9 8 7 7 7 8 6 9 14 10 7 8 18 17 11 10 8 8 10 11 10 10 11 10 8 10 12 12 12
10 9 8 7 7 8 9 7 11 11 11 9 10 3 5 13 14 16 11 10 9 10 11 11 11 12 11 11 11 10 10 12
Wind_Direction
161 155 162 168 171 159 170 160 177 171 163 161 166 163 160 163 174 205 84 177 165 207 153 161 147 183 152 172 186 175 34 37
170 161 162 165 170 168 174 165 164 210 160 194 162 176 175 185 167 187 185 214 178 281 345 126 209 149 115 150 38 69 78 53
174 168 170 182 178 175 180 178 166 217 204 175 197 183 191 170 185 163 250 259 251 235 154 240 195 168 156 103 192 129 136 118
175 188 183 190 185 182 183 190 177 186 200 195 178 198 161 209 187 174 200 257 209 247 203 199 188 196 159 179 97 217 142 123
197 195 202 192 195 183 193 192 180 192 199 191 201 181 194 196 189 190 217 247 199 281 242 225 200 195 182 166 219 212 179 159
198 210 214 206 214 195 193 190 181 194 194 192 196 174 209 207 189 190 191 215 231 232 249 207 202 199 195 162 238 208 203 190
184 214 214 212 202 205 195 193 198 192 187 190 213 212 228 248 203 205 184 220 227 272 245 225 200 212 204 171 218 237 183 223
181 194 205 214 209 197 198 194 197 184 169 180 197 210 207 234 237 206 202 217 204 199 230 229 229 227 191 215 247 195 240 217
197 204 197 215 205 196 192 193 187 178 177 186 196 213 211 216 220 211 213 240 121 205 246 204 230 234 245 198 218 215 219 235
201 202 213 202 194 194 192 194 185 186 182 189 196 222 209 207 196 141 201 154 196 214 252 235 220 209 211 224 222 218 227 212
192 189 184 187 188 189 191 193 190 194 187 172 159 155 174 191 190 217 201 203 208 219 218 250 196 253 207 207 202 221 226 193
146 162 170 177 187 181 182 186 192 192 189 180 185 211 210 172 225 240 186 209 216 213 218 219 219 232 226 208 218 245 233 246
133 160 160 167 170 174 173 177 182 184 185 195 189 233 168 159 211 233 230 198 219 218 216 222 221 224 205 244 213 222 221 256
157 141 153 156 161 167 168 171 175 178 187 194 211 214 217 216 234 253 244 222 205 228 233 230 225 225 218 218 227 225 242 248
177 175 186 175 174 175 172 174 176 183 189 198 208 220 225 225 248 241 278 246 231 221 226 239 231 230 239 228 214 231 220 231
193 197 194 185 187 187 182 181 189 185 193 206 213 223 230 233 230 276 248 252 263 235 226 236 228 234 228 232 236 233 225 225
206 203 205 207 187 190 190 186 186 172 198 209 217 233 249 269 258 234 236 242 255 229 239 233 230 230 231 236 237 234 236 226
219 222 217 206 208 181 196 181 171 168 191 196 327 345 312 284 263 245 250 253 245 254 242 236 237 234 228 228 245 236 230 232
233 222 211 219 186 178 155 158 161 116 69 67 49 46 29 328 291 266 252 254 249 245 245 231 231 231 227 237 245 257 226 235
285 259 244 210 195 158 142 136 106 120 114 115 99 18 348 275 278 270 269 258 253 250 253 249 245 233 234 226 228 232 253 243